Regional Weather Roundup
Issued by NWS Cleveland, OH

Home | Current Version | Previous Version | Graphics & Text | Print | Product List | Glossary Off
Versions: 1 2 3 4 5 6 7 8 9 10 11 12 13 14 15 16 17 18 19 20 21 22 23 24 25 26 27 28 29 30 31 32 33 34 35 36 37 38 39 40 41 42 43 44 45 46 47 48 49 50

000
ASUS41 KCLE 041510
RWRCLE
OHIO REGIONAL WEATHER ROUNDUP
NATIONAL WEATHER SERVICE CLEVELAND, OH
1100 AM EDT FRI SEP 04 2015

NOTE: "FAIR" INDICATES FEW OR NO CLOUDS BELOW 12,000 FEET WITH NO
SIGNIFICANT WEATHER AND/OR OBSTRUCTIONS TO VISIBILITY.

OHZ001>008-015>018-024>027-034-035-043-044-041600-
   NORTHWEST OHIO

CITY           SKY/WX    TMP DP  RH WIND       PRES   REMARKS
DEFIANCE       MOSUNNY   81  70  69 VRB5      30.02R
FINDLAY        PTSUNNY   79  69  71 S10       30.02S
TOLEDO EXPRESS MOSUNNY   76  70  82 SW3       30.02R
TOLEDO EXEC    MOSUNNY   79  69  71 SW9       30.03R
LIMA           MOSUNNY   78  69  73 SW8       30.04S
$$

OHZ009>014-019>023-028>033-038-089-041600-
   NORTHEAST OHIO

CITY           SKY/WX    TMP DP  RH WIND       PRES   REMARKS
CLE-HOPKINS    PTSUNNY   73  67  81 S10       30.07F
CLE-LAKEFRONT  PTSUNNY   75  67  76 S7        30.04S
CUY CO. ARPT   PTSUNNY   77  70  78 S6        30.07R
LORAIN-ELYRIA  PTSUNNY   69  66  90 S10       30.06R
ASHTABULA      PTSUNNY   73  67  81 S8        30.09S
AKRON-CANTON   LGT RAIN  69  64  84 W7        30.10R
WOOSTER        LGT RAIN  66  64  93 S7        30.10F
MANSFIELD      PTSUNNY   70  65  84 SE13      30.09R
YOUNGSTOWN     CLOUDY    71  66  84 S6        30.09S
$$

OHZ042-051>053-060>062-070>072-077>081-041600-
  SOUTHWEST OHIO

CITY           SKY/WX    TMP DP  RH WIND       PRES   REMARKS
CINC-COVINGTON MOSUNNY   85  67  54 SW7       30.06R
CINC-LUNKEN    SUNNY     83  71  67 SW3       30.05S
HAMILTON       SUNNY     84  69  60 VRB3      30.06R
DAYTON         MOSUNNY   83  69  62 S5        30.07R
WRIGHT-PAT AFB MOSUNNY   80  70  71 SE3       30.06R
DAYTON GENERAL SUNNY     81  69  67 S5        30.06S
WILMINGTON     SUNNY     81  69  67 S6        30.07R
$$

OHZ036-037-039>041-045>050-054>059-063>069-073>076-082>088-041600-
  CENTRAL AND SOUTHEAST OHIO

CITY           SKY/WX    TMP DP  RH WIND       PRES   REMARKS
COLUMBUS       CLOUDY    73  66  78 SE7       30.08R
OSU AIRPORT    PTSUNNY   75  67  76 S7        30.08R
BOLTON FIELD   SUNNY     73  68  83 S6        30.08R
RICKENBACK AFB CLOUDY    74  67  78 S3        30.07S
NEWARK         CLOUDY    72  66  81 E5        30.09R
MARION         MOSUNNY   76  68  76 S17       30.06S
LANCASTER      PTSUNNY   75  67  76 SE8       30.09R
ZANESVILLE     CLOUDY    68  66  93 CALM      30.11R
NEW PHILLY     LGT RAIN  68  67  96 CALM      30.11R
$$


USA.gov is the U.S. government's official web portal to all federal, state and local government web resources and services.